Crossville, TN

2:50 AM CST on February 24, 2017 (GMT -0600)
Crossville Memorial-Whitson

Weather History for KCSV - December, 2012

Change the Weather History Date:

Thursday, December 20, 2012

  Actual Average Record
Temperature  
Mean Temperature 44 °F 37 °F  
Max Temperature 56 °F 46 °F 67 °F (1978)
Min Temperature 32 °F 29 °F 3 °F (1981)
Degree Days  
Heating Degree Days 21    
Month to date heating degree days 317  
Since 1 July heating degree days 1282  
Cooling Degree Days 0    
Month to date cooling degree days 0  
Year to date cooling degree days 1156  
Moisture  
Dew Point 39 °F    
Average Humidity 70    
Maximum Humidity 93    
Minimum Humidity 47    
Precipitation  
Precipitation 0.85 in 0.15 in 1.45 in (1957)
Month to date precipitation 3.20 3.34  
Year to date precipitation 44.97 53.48  
Sea Level Pressure  
Sea Level Pressure 29.68 in    
Wind  
Wind Speed 17 mph (SSW)    
Max Wind Speed 26 mph    
Max Gust Speed 47 mph    
Visibility 7 miles    
Events Rain    
T = Trace of Precipitation, MM = Missing Value Source: NWS Daily Summary

Daily Weather History Graph

Daily Weather History Graph

Search for Another Location

Airport or City:

Trip Planner

Search our weather history database for the weather conditions in past years. The results will help you decide how hot, cold, wet, or windy it might be!

Date:

Astronomy

Dec. 20, 2012 Rise Set
Actual Time 6:46 AM CST 4:29 PM CST
Civil Twilight 6:18 AM CST 4:58 PM CST
Nautical Twilight 5:46 AM CST 5:30 PM CST
Astronomical Twilight 5:14 AM CST 6:01 PM CST
Moon 11:38 AM CST (12/20) No Moon Set
Length of Visible Light 10h 40m
Length of Day
9h 43m
First Quarter, 55% of the Moon is Illuminated
Dec 20
First Quarter
Dec 28
Full
Jan 4
Last Quarter
Jan 11
New
Jan 18
First Quarter

Hourly Weather History & Observations

Time (CST) Temp. Windchill Dew Point Humidity Pressure Visibility Wind Dir Wind Speed Gust Speed Precip Events Conditions
12:53 AM 54.0 °F - 42.1 °F 64% 29.92 in 10.0 mi South 8.1 mph 16.1 mph N/A   Clear
1:53 AM 54.0 °F - 39.9 °F 59% 29.90 in 10.0 mi South 9.2 mph 19.6 mph N/A   Clear
2:53 AM 55.0 °F - 37.0 °F 51% 29.83 in 10.0 mi SSE 16.1 mph 26.5 mph N/A   Clear
3:53 AM 55.0 °F - 35.1 °F 47% 29.79 in 10.0 mi South 15.0 mph 24.2 mph N/A   Mostly Cloudy
4:53 AM 51.1 °F - 42.1 °F 71% 29.80 in 6.0 mi South 13.8 mph 28.8 mph 0.02 in Rain Light Rain
5:53 AM 50.0 °F - 41.0 °F 71% 29.73 in 7.0 mi SSE 17.3 mph 35.7 mph 0.11 in Rain Rain
6:13 AM 48.2 °F - 42.8 °F 82% 29.77 in 2.5 mi South 17.3 mph 32.2 mph 0.08 in Rain Rain
6:20 AM 48.2 °F - 42.8 °F 82% 29.76 in 5.0 mi SSE 23.0 mph 38.0 mph 0.09 in Rain Light Rain
6:53 AM 46.9 °F - 42.1 °F 83% 29.74 in 6.0 mi SSE 23.0 mph 40.3 mph 0.16 in Rain Light Rain
7:24 AM 46.4 °F 40.7 °F 42.8 °F 87% 29.76 in 2.0 mi South 12.7 mph 35.7 mph 0.07 in Rain Rain
7:33 AM 46.4 °F 39.5 °F 42.8 °F 87% 29.76 in 7.0 mi SSE 17.3 mph 33.4 mph 0.08 in   Overcast
7:53 AM 46.9 °F - 42.1 °F 83% 29.73 in 10.0 mi SSE 18.4 mph 39.1 mph 0.08 in   Overcast
8:00 AM 46.4 °F 39.2 °F 42.8 °F 87% 29.73 in 10.0 mi SSE 18.4 mph 47.2 mph N/A   Overcast
8:26 AM 46.4 °F 39.8 °F 42.8 °F 87% 29.72 in 10.0 mi SSE 16.1 mph 42.6 mph N/A   Overcast
8:53 AM 46.9 °F - 42.1 °F 83% 29.68 in 10.0 mi SSE 23.0 mph 39.1 mph N/A   Overcast
9:44 AM 46.4 °F 40.4 °F 42.8 °F 87% 29.67 in 3.0 mi SSE 13.8 mph 36.8 mph 0.02 in Rain Light Rain
9:53 AM 46.9 °F - 44.1 °F 90% 29.65 in 2.5 mi SSE 16.1 mph 32.2 mph 0.06 in Rain Rain
10:08 AM 46.4 °F 40.1 °F 44.6 °F 93% 29.64 in 1.5 mi SSE 15.0 mph 29.9 mph 0.07 in Rain Rain
10:18 AM 48.2 °F - 44.6 °F 87% 29.63 in 2.5 mi SSE 17.3 mph 33.4 mph 0.09 in Rain Light Rain
10:25 AM 48.2 °F - 44.6 °F 87% 29.62 in 3.0 mi South 16.1 mph 29.9 mph 0.11 in Rain Rain
10:42 AM 48.2 °F - 44.6 °F 87% 29.63 in 2.0 mi South 15.0 mph 28.8 mph 0.15 in Rain Rain
10:49 AM 48.2 °F - 44.6 °F 87% 29.63 in 3.0 mi South 13.8 mph 28.8 mph 0.17 in Rain Rain
10:53 AM 48.0 °F - 45.0 °F 89% 29.61 in 3.0 mi SSE 15.0 mph 27.6 mph 0.18 in Rain Light Rain
11:19 AM 48.2 °F - 44.6 °F 87% 29.62 in 1.8 mi South 13.8 mph 23.0 mph 0.04 in Rain Rain
11:30 AM 48.2 °F - 44.6 °F 87% 29.61 in 2.5 mi South 12.7 mph 26.5 mph 0.08 in Rain Rain
11:53 AM 48.0 °F - 46.0 °F 93% 29.57 in 1.5 mi South 12.7 mph 21.9 mph 0.17 in Rain Rain
11:58 AM 48.2 °F - 46.4 °F 93% 29.58 in 3.0 mi South 12.7 mph 23.0 mph 0.01 in Rain Light Rain
12:13 PM 48.2 °F - 46.4 °F 93% 29.57 in 2.5 mi South 8.1 mph 25.3 mph 0.05 in Rain Light Rain
12:18 PM 48.2 °F - 46.4 °F 93% 29.57 in 6.0 mi South 10.4 mph 17.3 mph 0.05 in Rain Light Rain
12:43 PM 48.2 °F - 46.4 °F 93% 29.56 in 9.0 mi SSW 8.1 mph - 0.06 in Rain Light Rain
12:53 PM 50.0 °F - 46.9 °F 89% 29.52 in 9.0 mi South 10.4 mph 21.9 mph 0.06 in Rain Light Rain
1:06 PM 50.0 °F - 46.4 °F 87% 29.54 in 10.0 mi South 10.4 mph 19.6 mph 0.01 in   Overcast
1:53 PM 50.0 °F - 43.0 °F 77% 29.53 in 10.0 mi SSW 12.7 mph 21.9 mph 0.01 in   Overcast
2:12 PM 51.8 °F - 42.8 °F 71% 29.55 in 10.0 mi SW 12.7 mph 25.3 mph N/A   Overcast
2:38 PM 50.0 °F - 41.0 °F 71% 29.55 in 10.0 mi SW 11.5 mph 21.9 mph N/A   Overcast
2:53 PM 50.0 °F - 41.0 °F 71% 29.55 in 10.0 mi West 25.3 mph 42.6 mph N/A   Overcast
3:23 PM 46.4 °F 40.4 °F 35.6 °F 66% 29.61 in 10.0 mi West 13.8 mph 27.6 mph N/A   Overcast
3:36 PM 44.6 °F 36.1 °F 33.8 °F 66% 29.62 in 10.0 mi West 21.9 mph 36.8 mph N/A   Overcast
3:53 PM 43.0 °F 35.1 °F 32.0 °F 65% 29.64 in 10.0 mi West 17.3 mph 35.7 mph N/A   Overcast
4:53 PM 39.0 °F 29.9 °F 28.9 °F 67% 29.69 in 10.0 mi WSW 17.3 mph 29.9 mph N/A   Overcast
5:53 PM 37.0 °F 26.4 °F 25.0 °F 62% 29.73 in 10.0 mi West 20.7 mph 33.4 mph N/A   Overcast
6:53 PM 36.0 °F 25.0 °F 25.0 °F 64% 29.76 in 10.0 mi West 20.7 mph 38.0 mph N/A   Overcast
7:50 PM 35.6 °F 24.5 °F 24.8 °F 65% 29.77 in 10.0 mi West 20.7 mph 34.5 mph N/A   Overcast
7:53 PM 35.1 °F 25.5 °F 24.1 °F 64% 29.78 in 10.0 mi West 15.0 mph 34.5 mph N/A   Overcast
8:53 PM 34.0 °F 25.5 °F 26.1 °F 73% 29.78 in 10.0 mi West 11.5 mph 18.4 mph N/A   Overcast
9:53 PM 34.0 °F 24.6 °F 25.0 °F 70% 29.79 in 10.0 mi West 13.8 mph 26.5 mph N/A   Overcast
10:53 PM 34.0 °F 23.4 °F 24.1 °F 67% 29.80 in 10.0 mi West 17.3 mph 34.5 mph N/A   Overcast
11:53 PM 32.0 °F 20.5 °F 23.0 °F 69% 29.81 in 9.0 mi West 18.4 mph 31.1 mph 0.00 in   Overcast